Lake Wenatchee to Mission Ridge
Dirtyface Mt
Latest observation 09/01 21:00 PDT
| Time (PDT) | Temp °F 5980' | RH % 5980' | Min mph 5980' | Spd mph 5980' | Gust mph 5980' | Dir ° 5980' |
|---|---|---|---|---|---|---|
| 09/01 21:00 | 44 | 94 | 16 | 25 | 33 | 282 |
| 09/01 20:00 | 47 | 80 | 16 | 24 | 39 | 281 |
| 09/01 19:00 | 51 | 71 | 14 | 22 | 30 | 282 |
| 09/01 18:00 | 53 | 65 | 13 | 21 | 32 | 268 |
| 09/01 17:00 | 56 | 58 | 10 | 17 | 28 | 248 |
| 09/01 16:00 | 61 | 50 | 11 | 17 | 26 | 226 |
| 09/01 15:00 | 62 | 50 | 6 | 13 | 20 | 224 |
| 09/01 14:00 | 62 | 38 | 1 | 6 | 14 | 181 |
| 09/01 13:00 | 62 | 35 | 1 | 4 | 8 | 173 |
| 09/01 12:00 | 63 | 33 | 4 | 6 | 9 | 173 |
| 09/01 11:00 | 61 | 35 | 1 | 4 | 8 | 154 |
| 09/01 10:00 | 59 | 38 | 2 | 5 | 8 | 121 |
| 09/01 09:00 | 57 | 40 | 3 | 6 | 9 | 120 |
| 09/01 08:00 | 56 | 41 | 4 | 6 | 9 | 136 |
| 09/01 07:00 | 55 | 41 | 4 | 7 | 10 | 140 |
| 09/01 06:00 | 55 | 42 | 4 | 8 | 11 | 107 |
| 09/01 05:00 | 56 | 40 | 1 | 4 | 8 | 76 |
| 09/01 04:00 | 56 | 40 | 3 | 7 | 10 | 99 |
| 09/01 03:00 | 55 | 43 | 5 | 10 | 13 | 137 |
| 09/01 02:00 | 55 | 44 | 6 | 12 | 14 | 124 |
| 09/01 01:00 | 55 | 43 | 10 | 13 | 16 | 116 |
| 09/01 00:00 | 55 | 45 | 8 | 11 | 15 | 90 |
| 08/31 23:00 | 55 | 45 | 9 | 12 | 14 | 87 |
| 08/31 22:00 | 54 | 47 | 8 | 11 | 14 | 104 |

